Wind_Speed
24 17 22 22 27 24 19 14 20 21 19 24 16 20 23 23 21 22 23 22 21 21 21 24 27 27 27 24 23 29 31 29 30 33 34 36 34 35
19 24 24 26 24 19 15 19 19 19 25 24 27 26 24 24 25 21 22 19 19 21 26 29 33 32 30 28 25 29 27 31 30 29 31 36 37 38
24 27 28 26 21 17 17 15 17 21 28 31 30 26 27 25 19 19 17 19 23 25 29 29 33 33 31 30 28 27 24 33 36 24 33 37 31 33
27 30 29 25 20 15 15 15 20 21 26 31 28 26 23 20 22 16 17 21 24 26 28 31 32 32 31 28 26 28 25 26 20 31 9 29 38 45
31 33 28 23 19 15 13 16 19 24 22 23 24 22 21 20 17 19 22 23 24 26 28 31 32 30 29 28 25 27 25 21 23 28 25 24 29 40
35 32 28 22 18 13 15 21 26 22 19 19 18 19 17 16 18 22 23 24 29 27 30 27 25 24 28 26 21 23 21 18 21 28 37 37 36 43
37 31 28 22 17 14 17 22 23 20 18 19 19 18 17 17 16 20 25 26 31 29 27 20 20 20 21 19 19 19 17 19 19 29 43 46 46 51
41 33 29 20 15 15 20 22 20 18 20 19 18 19 18 17 18 19 23 23 29 26 23 21 18 17 15 12 15 13 16 26 23 38 42 43 45 41
34 29 23 19 18 17 19 19 19 18 16 16 19 19 20 17 18 22 19 20 20 22 21 19 16 15 14 9 10 15 20 27 35 34 49 52 47 40
28 22 20 16 15 19 19 15 15 14 13 14 16 17 19 19 20 17 21 18 17 16 14 14 11 3 8 4 11 14 16 44 44 49 45 39 37 39
19 16 12 13 14 19 17 13 12 13 13 14 15 18 20 16 17 17 15 13 16 14 12 10 5 10 13 8 10 17 43 48 39 35 30 34 40 33
11 9 9 12 15 16 15 14 15 11 11 13 16 16 14 16 15 15 15 13 14 12 11 9 9 10 8 15 18 35 37 37 32 39 39 35 38 41
10 9 9 14 14 13 16 16 15 11 13 14 13 14 14 15 16 16 15 13 15 14 8 11 15 10 8 18 18 28 30 35 39 38 36 33 35 35
6 8 10 12 13 12 15 14 13 14 15 14 14 14 15 14 14 16 13 13 13 13 13 13 13 14 18 28 29 31 44 37 47 52 47 43 32 27
8 10 8 9 12 13 12 11 12 15 16 17 16 14 12 11 13 14 7 10 11 13 13 12 16 14 25 33 39 40 43 44 48 47 46 37 31 26
11 10 10 10 13 13 14 12 12 14 14 18 15 11 11 11 12 6 9 11 11 13 12 12 15 21 29 33 34 44 46 42 48 44 40 34 30 24
11 9 10 10 11 11 12 12 16 14 16 17 15 13 12 10 9 7 9 10 10 13 14 14 15 23 28 32 37 40 42 42 43 42 36 33 28 23
11 11 10 11 9 8 9 11 12 13 13 15 15 13 12 9 7 10 12 10 10 13 15 15 17 22 24 27 33 36 41 43 39 38 35 32 28 24
13 10 8 8 9 7 9 10 10 11 14 15 15 13 12 9 9 15 14 12 12 13 14 15 18 21 29 31 31 41 42 38 38 37 34 30 28 25
12 9 6 6 7 7 7 9 9 10 14 15 15 14 11 10 13 17 17 16 14 15 16 15 17 22 29 35 28 37 34 35 35 35 36 31 24 22
9 7 5 6 7 7 8 8 7 8 11 13 16 13 12 13 15 17 17 17 17 15 17 18 19 20 22 26 26 33 33 30 35 34 36 33 28 27
8 5 4 5 6 5 6 7 7 7 10 11 13 12 13 14 14 18 17 17 17 16 16 18 19 20 20 21 23 27 32 30 27 32 33 33 31 29
5 5 7 6 5 5 5 6 7 7 6 8 10 13 13 14 15 15 18 17 17 16 17 19 19 19 19 19 19 23 28 31 33 31 29 29 26 22
Wind_Direction
223 225 203 204 215 225 235 257 287 279 286 298 284 300 300 303 300 295 299 298 286 290 296 292 285 282 283 279 258 249 235 239 247 241 245 239 232 228
227 196 203 208 214 221 247 265 265 286 283 284 294 299 296 304 303 296 305 297 294 291 290 290 290 288 270 274 270 258 253 255 254 246 252 241 232 225
202 203 203 210 211 230 248 262 287 288 283 286 296 297 298 302 298 297 297 292 291 285 288 287 286 283 273 274 271 270 258 246 247 255 251 229 219 208
214 201 209 209 222 239 265 276 286 285 280 288 290 292 298 298 296 289 292 290 289 295 294 294 289 282 276 271 266 263 262 253 250 243 207 192 193 162
208 208 210 223 231 251 275 284 279 278 280 281 289 294 299 300 297 294 297 295 299 298 295 292 289 279 274 269 265 259 262 260 245 235 208 181 162 162
213 217 218 224 235 255 280 284 287 277 277 276 285 287 286 280 285 298 302 305 308 307 303 302 292 279 271 266 261 259 260 252 242 215 190 177 172 167
216 222 229 231 247 261 276 287 274 271 268 268 270 276 273 280 291 301 307 309 309 314 309 314 300 283 278 266 254 249 238 204 195 157 168 164 166 161
220 223 224 231 241 269 287 269 267 270 270 260 262 270 272 278 289 293 300 319 316 315 313 321 315 308 287 262 247 217 198 199 222 192 176 168 159 155
218 221 224 235 255 262 262 263 269 266 271 260 259 266 267 265 281 285 298 311 302 303 305 311 323 312 304 254 215 208 200 197 175 171 173 167 165 160
212 219 230 237 250 259 253 253 254 258 262 262 266 260 268 278 279 282 299 306 293 295 297 303 311 269 299 233 190 191 205 179 173 159 153 153 153 153
214 222 239 244 262 255 258 257 256 251 252 253 256 264 265 259 276 289 293 295 290 287 279 281 233 171 92 103 143 197 170 171 168 160 165 159 154 146
268 267 287 276 254 252 264 266 264 261 243 257 260 264 248 259 276 289 282 273 271 276 263 256 202 155 116 116 138 159 148 145 161 156 153 155 158 153
238 236 257 267 263 268 272 270 268 256 243 246 252 260 263 272 275 277 273 259 252 250 252 228 213 206 168 151 144 166 157 154 155 161 160 157 165 159
291 297 275 272 266 270 271 259 256 243 252 249 244 247 259 268 270 277 275 245 237 227 224 224 211 201 178 163 154 156 161 168 172 160 159 156 157 157
292 295 294 283 277 268 257 246 248 235 237 241 241 247 258 259 275 283 247 218 210 204 206 224 219 214 173 161 155 167 168 166 168 171 162 160 160 166
289 298 289 277 265 254 238 260 263 241 234 235 236 249 254 257 278 254 194 198 190 192 197 210 212 197 179 171 170 167 170 159 164 163 159 158 157 165
288 287 284 282 261 244 235 259 251 236 236 226 222 232 238 242 261 191 183 180 186 186 186 189 193 186 172 167 164 166 171 171 170 165 163 162 169 172
286 286 293 280 241 235 248 247 244 241 229 221 219 234 228 231 216 183 180 179 181 181 184 182 183 183 188 183 186 178 174 171 169 173 173 174 175 179
283 276 277 255 235 243 245 247 251 241 223 219 219 224 222 217 195 185 181 183 185 184 181 182 185 193 179 170 176 178 171 170 172 177 183 187 186 185
264 271 271 238 239 249 255 252 246 227 217 215 217 216 213 208 197 192 190 188 188 184 180 183 185 191 193 183 177 184 186 183 186 185 187 191 193 194
264 269 267 226 245 250 259 257 248 225 219 216 213 213 207 203 203 197 194 196 191 191 188 186 187 190 194 199 193 189 193 198 197 198 192 194 195 194
265 256 228 229 240 257 252 246 243 228 214 207 205 211 208 205 207 204 198 198 196 194 195 191 187 190 194 195 195 198 196 196 201 206 204 204 206 198
269 243 240 244 237 240 251 249 235 233 219 212 209 210 212 206 205 205 204 205 200 196 194 190 189 190 194 194 199 196 197 199 199 199 206 213 218 213
Height
1466 1468 1470 1474 1481 1487 1488 1489 1487 1485 1483 1481 1481 1481 1481 1483 1482 1478 1474 1472 1469 1469 1469 1469 1467 1465 1465 1463 1461 1461 1461 1463 1462 1468 1470 1474 1478 1482
1459 1464 1468 1473 1476 1478 1480 1480 1480 1478 1476 1475 1476 1474 1473 1472 1474 1472 1468 1466 1465 1463 1462 1460 1459 1456 1456 1457 1455 1456 1457 1459 1457 1459 1461 1464 1468 1472
1453 1458 1462 1466 1468 1470 1472 1472 1471 1470 1468 1468 1468 1469 1466 1465 1466 1462 1462 1460 1460 1457 1456 1453 1452 1450 1449 1449 1447 1448 1451 1450 1452 1454 1451 1451 1458 1462
1446 1452 1456 1459 1461 1461 1461 1461 1462 1464 1464 1463 1462 1460 1459 1456 1458 1456 1456 1453 1450 1452 1448 1446 1445 1442 1441 1441 1440 1440 1442 1444 1446 1448 1449 1444 1445 1457
1441 1445 1448 1451 1452 1453 1454 1455 1457 1457 1455 1455 1454 1454 1453 1453 1455 1455 1451 1448 1447 1444 1442 1437 1436 1434 1432 1433 1434 1434 1436 1437 1440 1441 1445 1450 1455 1460
1435 1439 1439 1440 1443 1444 1446 1448 1449 1447 1447 1448 1447 1447 1447 1445 1445 1446 1442 1438 1440 1439 1437 1430 1427 1426 1425 1426 1427 1429 1432 1434 1437 1437 1443 1448 1456 1461
1430 1433 1434 1435 1435 1435 1438 1439 1439 1437 1440 1440 1440 1442 1443 1443 1441 1441 1440 1435 1437 1434 1431 1425 1421 1420 1419 1420 1422 1424 1429 1434 1438 1440 1442 1450 1455 1462
1419 1423 1426 1427 1427 1428 1428 1430 1430 1431 1432 1433 1436 1437 1439 1439 1437 1437 1435 1429 1432 1433 1430 1423 1419 1416 1414 1416 1418 1421 1425 1431 1437 1439 1446 1453 1459 1463
1411 1414 1416 1418 1418 1418 1419 1419 1422 1423 1425 1427 1428 1430 1431 1430 1431 1434 1431 1424 1427 1431 1430 1422 1418 1414 1413 1413 1416 1419 1423 1428 1436 1438 1445 1453 1460 1466
1401 1405 1408 1407 1408 1410 1412 1411 1411 1415 1418 1420 1422 1426 1428 1428 1426 1429 1428 1423 1424 1426 1428 1424 1419 1416 1413 1413 1415 1417 1420 1426 1432 1441 1447 1456 1463 1469
1395 1397 1400 1401 1402 1409 1407 1405 1407 1410 1413 1415 1416 1421 1423 1421 1423 1424 1422 1420 1423 1423 1425 1424 1421 1419 1416 1415 1416 1419 1423 1427 1435 1442 1450 1459 1467 1473
1398 1396 1396 1396 1402 1402 1400 1402 1401 1405 1406 1411 1412 1415 1415 1418 1418 1419 1419 1417 1421 1421 1422 1423 1422 1421 1421 1421 1422 1424 1429 1433 1438 1448 1456 1462 1470 1477
1387 1386 1387 1395 1395 1394 1396 1396 1399 1401 1403 1404 1407 1413 1411 1412 1413 1414 1414 1411 1416 1418 1420 1421 1421 1422 1422 1425 1428 1430 1434 1439 1446 1455 1462 1468 1475 1481
1386 1385 1386 1387 1388 1387 1391 1391 1393 1397 1402 1402 1401 1405 1408 1408 1409 1409 1408 1409 1411 1414 1418 1420 1420 1421 1421 1424 1428 1434 1438 1445 1450 1455 1464 1472 1480 1486
1384 1384 1380 1381 1382 1383 1385 1386 1388 1389 1393 1399 1398 1400 1402 1404 1404 1404 1403 1407 1409 1412 1415 1417 1420 1421 1423 1423 1425 1434 1440 1448 1455 1461 1467 1475 1480 1487
1378 1377 1377 1375 1377 1379 1380 1383 1386 1386 1386 1392 1394 1397 1398 1399 1402 1398 1400 1406 1407 1410 1413 1416 1419 1421 1424 1427 1431 1436 1443 1448 1456 1463 1470 1477 1483 1490
1373 1371 1372 1370 1374 1374 1377 1378 1384 1382 1382 1388 1391 1392 1393 1395 1397 1397 1400 1405 1407 1409 1412 1415 1418 1423 1428 1432 1435 1440 1445 1452 1459 1465 1472 1478 1486 1491
1369 1369 1368 1369 1371 1370 1371 1377 1378 1378 1379 1384 1388 1389 1391 1390 1393 1396 1401 1405 1407 1409 1412 1415 1418 1423 1428 1434 1438 1441 1447 1453 1460 1467 1473 1478 1485 1491
1365 1366 1365 1366 1370 1368 1370 1372 1375 1375 1378 1381 1383 1386 1389 1387 1390 1396 1400 1404 1407 1409 1412 1415 1419 1423 1427 1431 1438 1443 1446 1453 1460 1467 1473 1479 1485 1490
1363 1363 1364 1366 1366 1366 1369 1371 1371 1372 1374 1377 1380 1382 1384 1386 1389 1395 1398 1402 1406 1408 1411 1415 1419 1423 1428 1432 1436 1444 1449 1454 1460 1467 1473 1480 1486 1491
1361 1361 1361 1363 1366 1365 1367 1369 1369 1369 1372 1374 1377 1379 1381 1385 1388 1393 1397 1400 1404 1408 1411 1414 1419 1423 1428 1434 1439 1443 1449 1456 1460 1465 1470 1477 1482 1487
1360 1359 1361 1362 1364 1364 1365 1367 1367 1369 1371 1372 1373 1376 1380 1383 1386 1390 1394 1398 1402 1406 1410 1414 1418 1423 1428 1432 1437 1441 1447 1453 1460 1465 1469 1474 1479 1482
1358 1359 1361 1362 1362 1363 1364 1365 1366 1367 1368 1369 1371 1375 1378 1381 1384 1388 1392 1397 1401 1405 1409 1413 1418 1422 1427 1431 1435 1439 1444 1449 1454 1459 1465 1471 1475 1480